2024-013D

Last updated on Fri Jan 19 2024 00:02:04 GMT+0000 (Coordinated Universal Time)

1 58814U 24013D 24018.11444661 -.00002240 70950-5 00000+0 0 9992 2 58814 41.6413 286.0086 0240306 187.1577 323.2676 15.72861586 84
UTC large
Height (km)
Speed (km/s)
/
Latitude / Longitude
Inclination (degrees)
Orbital Period (minutes)
Azimuth
Elevation
Range (km)
Doppler Factor

Next 0 passes for location: London (51.5072 / 0.1276)

Sorry there are no passes over London.